Search:

N Scale Model Trains Database

Engines, Rolling Stock, Structures, and Accessories

Kids enjoy NTRAK

Help us enter data and earn free trains. Details Here!

What is N-Scale?

Although it may be mistakenly called N-Gauge, derived from some of the earliest mass produced 1:152 "OOO" or "Treble-O" scale models manufactured by the British firm, Lone Star, in 1961, 9 mm wide (i.e., a track gauge of 0.354 inches, as measured between the inner sides of the rail) contemporary N-Scale model production was initiated by the German firm, Arnold Rapido, in 1962.

While a rail gauge of 9 mm remains constant for standard gauge (as opposed to narrow gauge) N-Scale locomotives and rolling-stock, depending upon the place of manufacture and/or the specific market that a model is targeted to be sold in, its size in proportion to its prototype (i.e., "scale") may be 1:148 (British Outline), 1:150 (for Japanese 3 foot 6 inch /1,067 mm or 4 foot 6 inch / 1,372 mm gauge trains), or 1:160 (for North American, Japanese 1,435 mm high-speed trains, and Continental European) scale. Read more here.

Body Style:
Brand:
Road/Company Name:
Model Type:
Total items in collection: 40300. Total items on page 156

First Image Brand Stock Number Road/Company Name Reporting Marks Road/Reporting Number Prototype Original Retail Price Market Release Date ID
AHM 4321 Bangor and Aroostook Boxcar, 40 Foot, PS-1 $1.49 1970-01-01 124704
AHM 4322 Western Maryland Boxcar, 40 Foot, PS-1 $1.49 E:$9.99 H:$14.85 1970-01-01 124705
AHM 4323 Great Northern 27024 Boxcar, 40 Foot, PS-1 $1.49 1970-01-01 124706
AHM 4324 Florida East Coast Boxcar, 40 Foot, PS-1 $1.49 H:$32.48 1970-01-01 124707
AHM 4325 Alton & Southern AL&S 905 Box Car, 40 Foot, Steel Combo Door $1.49 1970-01-01 124708
AHM 4326 Erie Lackawanna Boxcar, 40 Foot, PS-1 $1.49 1970-01-01 124709
AHM 4327 Atlantic & Danville A&D 2005 Box Car, 40 Foot, Steel Combo Door $1.49 1970-01-01 124710
AHM 4328 Toledo, Peoria & Western TP&W 510 Box Car, 40 Foot, Steel Combo Door $1.49 1970-01-01 124711
AHM 4329 New York Central Boxcar, 40 Foot, PS-1 $1.49 E:$32.57 1970-01-01 124712
AHM 4330 Port Huron & Detroit PHD 1347 Box Car, 40 Foot, Steel Combo Door $1.49 H:$0.99 1970-01-01 124713
AHM 4331 Bessemer & Lake Erie B&LE 81203 Box Car, 40 Foot, Steel Combo Door $1.49 1970-01-01 124714
AHM 4332 Western Pacific Box Car, 40 Foot, Steel Combo Door $1.49 E:$9.99 H:$32.40 1970-01-01 124715
AHM 4341 GATX Corporation Tank Car, Single Dome $1.98 1970-01-01 122894
AHM 4342 Hooker Chemical Tank Car, Single Dome $1.98 1970-01-01 122895
AHM 4343 Ethyl Tank Car, Single Dome $1.98 1970-01-01 122896
AHM 4344 Gulf Tank Car, Single Dome $1.98 H:$11.99 1970-01-01 122897
AHM 4441F Shell Oil SPCX 5220 Covered Hopper, 4-Bay, Centerflow H:$14.00 1970-01-01 111392
AHM 4902B Pennsylvania PRR 27024 Autorack, Open, Tri-Level $3.98 H:$12.25 1970-01-01 124667
AHM 4902C Santa Fe AT&SF 119909 Autorack, Open, Tri-Level $3.98 E:$27.66 H:$8.00 1970-01-01 124668
AHM 4902D Union Pacific 71016 Autorack, Open, Tri-Level $3.98 H:$15.18 1970-01-01 124669
Arnold 0271F Frisco 720 Engine, Diesel, GP7 $14.98 1970-01-01 124478
Arnold 0274B Penn Central 274 Engine, Diesel, FA-2 $12.98 1970-01-01 94779
Arnold 0402B Burlington Route CB&Q Open Hopper, 2-Bay, Rib Side $2.25 1970-01-01 124801
Arnold 0402C Chesapeake & Ohio C&O 4040 Open Hopper, 2-Bay, Rib Side $2.25 1970-01-01 124797
Arnold 0404D Detroit Toledo & Ironton Trains $3.98 1970-01-01 124803
Arnold 0404U Union Pacific UP 300620 Trains $3.98 H:$16.00 1970-01-01 124802
Arnold 0406S Trailer Train GTTX 104 Flatcar, 86 Foot $4.50 1970-01-01 124805
Arnold 0406T Trailer Train GTTX 104 Flatcar, 86 Foot $4.50 1970-01-01 124804
Arnold 0407S Trailer Train GTTX 104 Flatcar, 86 Foot $4.50 1970-01-01 124808
Arnold 0407T Trailer Train GTTX 104 Flatcar, 86 Foot $4.50 1970-01-01 124806
Arnold 0481C New York Central Caboose, Cupola, 3-Window Woodside $2.25 1970-01-01 123289
Arnold 0481E Erie Caboose, Cupola, 3-Window Woodside $2.25 1970-01-01 124815
Arnold 0481S Santa Fe Caboose, Cupola, 3-Window Woodside $2.25 1970-01-01 124816
Arnold 0481U Union Pacific 3421 Caboose, Cupola, 3-Window Woodside $2.25 1970-01-01 124817
Arnold 0486 Western Maryland 2475 Flatcar, 40 Foot $2.50 1970-01-01 124796
Arnold 0489A Alaska Railroad Gondola, Composite, Fishbelly $2.50 1970-01-01 123336
Arnold 0489B Burlington Route Gondola, Composite, Fishbelly $2.50 1970-01-01 123335
Arnold 0489F Frisco Gondola, Composite, Fishbelly $2.50 1970-01-01 123339
Arnold 0489L Lackawanna Gondola, Composite, Fishbelly $2.50 1970-01-01 123337
Arnold 0489W Wabash WAB 7226 Gondola, Composite, Fishbelly $2.50 1970-01-01 123338
Arnold AR-2060 Henschel HENSCHEL V160029 Engine, Diesel, V45 1970-01-01 90700
Arnold N2588 St. Louis Iron Mountain and Southern StLIMS 2588 Stock Car, 40 Foot, Wood $2.00 1970-01-01 124770
Atlas 3101 Santa Fe ATSF 119909 Autorack, Open, Tri-Level $4.00 E:$7.99 1970-01-01 93273
Atlas 3102 Union Pacific TTX 71014 Autorack, Open, Tri-Level $4.00 E:$7.99 H:$22.00 1970-01-01 93274
Atlas 3103 Frisco SLSF Autorack, Open, Tri-Level $4.00 E:$3.10 H:$26.50 1970-01-01 93275
Atlas 3104 Penn Central PC 71014 Autorack, Open, Tri-Level $4.00 E:$7.99 H:$10.95 1970-01-01 93276
Atlas 3111 Citgo GATX 96501 Tank Car, 94 Foot, Whale Belly $4.00 1970-01-01 93326
Atlas 3112 Texaco GATX 96502 Tank Car, 94 Foot, Whale Belly $4.00 H:$66.25 1970-01-01 93327
Atlas 3113 Wanda Petroleum GATX 96503 Tank Car, 94 Foot, Whale Belly $4.00 1970-01-01 93328
Atlas 3114 GATX Corporation GATX 96500 Tank Car, 94 Foot, Whale Belly $4.00 E:$13.93 H:$25.00 1970-01-01 93329
Atlas 3131 Baltimore & Ohio B&O 493025 Boxcar, 85 Foot, Hi-Cube $3.00 H:$8.50 1970-01-01 93146
Atlas 3132 Southern Pacific SP 615275 Boxcar, 85 Foot, Hi-Cube $3.00 H:$8.50 1970-01-01 93147
Atlas 3133 Grand Trunk Western GTW 378079 Boxcar, 85 Foot, Hi-Cube $3.00 H:$16.99 1970-01-01 93148
Atlas 3134 New York Central NYC 67628 Boxcar, 85 Foot, Hi-Cube $3.00 H:$8.50 1970-01-01 93149
Aurora Postage Stamp 4865 Canadian Pacific CP 309957 Flatcar, 50 Foot, Depressed Center 1970-01-01 123596
Aurora Postage Stamp 4866 United Carbon Company SHPX 46135 Covered Hopper, 60 Foot, Cylindrical $1.75 H:$8.28 1970-01-01 125220
Aurora Postage Stamp 4866 Dow DOW X-38370 Covered Hopper, 60 Foot, Cylindrical $1.75 H:$8.28 1970-01-01 125218
JC Timmer 3226 Canadian Pacific 35444 Box Car, 40 Foot, Steel Combo Door $1.75 1970-01-01 124670
Minitrix 2913 Painted/Unlettered Engine, Steam, 0-6-0 Lil Donkey $12.50 H:$28.48 1970-01-01 123769
Minitrix 3031 Union Pacific Passenger Car, Streamlined, Corrugated, Coach $3.00 E:$15.00 1970-01-01 125265
Minitrix 3032 Santa Fe Passenger Car, Streamlined, Corrugated, Coach $3.00 E:$6.95 1970-01-01 125244
Minitrix 3034 Baltimore & Ohio Passenger Car, Streamlined, Corrugated, Coach $3.00 1970-01-01 125266
Minitrix 3037 Penn Central Passenger Car, Streamlined, Corrugated, Coach $3.00 E:$9.95 H:$10.22 1970-01-01 125267
Minitrix 3041 Union Pacific 950 Passenger Car, Streamlined, Corrugated, Observation $3.50 H:$12.00 1970-01-01 125271
Minitrix 3042 Santa Fe Passenger Car, Streamlined, Corrugated, Observation $3.50 1970-01-01 125246
Minitrix 3044 Baltimore & Ohio 951 Passenger Car, Streamlined, Corrugated, Observation $3.50 H:$3.25 1970-01-01 125272
Minitrix 3045 Canadian National CN Gaspe Passenger Car, Streamlined, Corrugated, Observation $3.50 1970-01-01 125275
Minitrix 3047 Penn Central 4893 Passenger Car, Streamlined, Corrugated, Observation $3.50 H:$9.49 1970-01-01 125273
Minitrix 3051 Union Pacific Passenger Car, Streamlined, Corrugated, Dome $3.50 1970-01-01 125268
Minitrix 3052 Santa Fe Passenger Car, Streamlined, Corrugated, Dome $3.50 E:$6.95 1970-01-01 125269
Minitrix 3054 Baltimore & Ohio Passenger Car, Streamlined, Corrugated, Dome $3.50 E:$13.95 H:$10.99 1970-01-01 125245
Minitrix 3055 Canadian National CN Jasper Passenger Car, Streamlined, Corrugated, Dome 1970-01-01 125274
Minitrix 3057 Penn Central Passenger Car, Streamlined, Corrugated, Dome $3.50 E:$12.99 1970-01-01 125270
Minitrix 3101 Dupont SHPX 50020 Ortner Container Car $2.50 1970-01-01 123192
Minitrix 3102 Dow Ortner Container Car $2.50 1970-01-01 123191
Minitrix 3103 Monsanto MCPX 23008 Ortner Container Car $2.50 1970-01-01 123194
Minitrix 3104 Hooker Chemical Ortner Container Car $2.50 E:$8.50 H:$7.95 1970-01-01 123193
Minitrix 3111 Santa Fe ATSF 77902 Open Hopper, 3-Bay, Longitudinal $2.50 1970-01-01 123461
Minitrix 3116 Norfolk & Western N&W 70999 Flatcar, 50 Foot, Depressed Center $2.50 1970-01-01 122969
Minitrix 3117 Erie ERIE 7200 Flatcar, 50 Foot, Depressed Center $2.50 E:$19.00 1970-01-01 95072
Minitrix 3118 Canadian Pacific CP 309957 Flatcar, 50 Foot, Depressed Center $2.50 1970-01-01 125969
Minitrix 3119 Rock Island Flatcar, 50 Foot, Depressed Center $2.50 1970-01-01 125970
Minitrix 3121 Dow DOWX 38370 Covered Hopper, 60 Foot, Cylindrical $2.50 H:$15.00 1970-01-01 95071
Minitrix 3122 United Carbon Company SHPX 46135 Covered Hopper, 60 Foot, Cylindrical $2.50 E:$15.00 H:$8.22 1970-01-01 120012
Minitrix 3123 Union Pacific UP 21382 Covered Hopper, 60 Foot, Cylindrical $2.50 H:$8.00 1970-01-01 118841
Minitrix 3124 Shell Oil SCCX 1245 Covered Hopper, 60 Foot, Cylindrical $2.50 E:$15.00 H:$9.50 1970-01-01 120013
Minitrix 3127 Swift Refrigerator SRLX 4226 Reefer, 50 Foot, Mechanical $2.50 E:$9.91 1970-01-01 95074
Minitrix 3131 Frisco SL-SF 152705 Box Car, 50 Foot, Double Door $2.50 E:$16.00 1970-01-01 120014
Minitrix 3132 Penn Central PC 80006 Box Car, 50 Foot, Double Door $2.50 H:$8.37 1970-01-01 120015
Minitrix 3133 Burlington Route CB&Q Box Car, 50 Foot, Double Door $2.50 1970-01-01 120016
Minitrix 3134 Port Huron & Detroit PHD 1347 Box Car, 50 Foot, Double Door $2.50 1970-01-01 95069
Minitrix 3136 Union Pacific UP 19249 Covered Hopper, 3-Bay, 50 Foot $2.50 1970-01-01 101135
Minitrix 3137 Holly Sugar GACX 42764 Covered Hopper, 3-Bay, 50 Foot $2.50 1970-01-01 95070
Minitrix 3138 Southern Pacific SP 60604 Covered Hopper, 3-Bay, 50 Foot $2.50 1970-01-01 101134
Minitrix 3139 Boston & Maine BM 10056 Covered Hopper, 3-Bay, 50 Foot $2.50 1970-01-01 101133
Minitrix 3141 GATX Corporation GATX 83605 Tank Car, 33K, LPG $2.50 1970-01-01 122965
Minitrix 3142 Southern Pacific SP 67270 Tank Car, 33K, LPG $2.50 H:$9.00 1970-01-01 122964
Minitrix 3143 Great Northern GN 103020 Tank Car, 33K, LPG $2.50 1970-01-01 122966
Minitrix 3144 Mobil Oil SVX 1360 Tank Car, 33K, LPG $2.50 1970-01-01 95075
Minitrix 3146 Canadian Pacific Flatcar, 50 Foot, Fishbelly $2.50 E:$14.99 H:$7.50 1970-01-01 123777
Minitrix 3147 Southern Pacific Flatcar, 50 Foot, Fishbelly $2.50 1970-01-01 123778
Minitrix 3148 Penn Central PC 50500 Flatcar, 50 Foot, Fishbelly $2.50 1970-01-01 123779
Minitrix 3149 Santa Fe ATSF 94138 Flatcar, 50 Foot, Fishbelly $2.50 1970-01-01 95073
Minitrix 3200 New Haven NH 160328 Box Car, 40 Foot, Steel Double Door $1.75 H:$10.00 1970-01-01 120006
Minitrix 3201 Great Northern GN 11875 Box Car, 40 Foot, Single Door $1.75 E:$14.97 H:$6.25 1970-01-01 120007
Minitrix 3202 Boston & Maine BM 70056 Box Car, 40 Foot, Single Door $1.75 H:$6.78 1970-01-01 95068
Minitrix 3203 National Cylinder Gas CAOX Box Car, 40 Foot, Single Door $1.75 E:$6.99 H:$10.36 1970-01-01 120011
Minitrix 3205 Canadian National CN 571262 Box Car, 40 Foot, Steel Double Door $1.75 E:$9.90 H:$12.95 1970-01-01 120008
Minitrix 3206 Canadian Pacific CP 293906 Box Car, 40 Foot, Single Door $1.75 1970-01-01 120009
Minitrix 3207 Union Pacific 60900 Gondola, 40 Foot, Steel $1.75 1970-01-01 123384
Minitrix 3208 Canadian National Gondola, 40 Foot, Steel $1.75 1970-01-01 123385
Minitrix 3209 Canadian Pacific Gondola, 40 Foot, Steel $1.75 1970-01-01 123386
Minitrix 3210 Southern 2207 Gondola, 40 Foot, Steel $1.75 1970-01-01 123383
Minitrix 3211 Pennsylvania 372401 Gondola, 40 Foot, Steel $1.75 H:$4.61 1970-01-01 123387
Minitrix 3212 Baltimore & Ohio B&O 257602 Gondola, 40 Foot, Steel $1.75 1970-01-01 123388
Minitrix 3213 Burlington Route CB&Q 83116 Gondola, 40 Foot, Steel $1.75 1970-01-01 123389
Minitrix 3222 Bessemer & Lake Erie B&LE 20090 Open Hopper, Ore, 70 Ton $1.75 H:$14.83 1970-01-01 125975
Minitrix 3223 Chicago & North Western Open Hopper, Ore, 70 Ton $1.75 1970-01-01 125976
Minitrix 3224 Great Northern Open Hopper, Ore, 70 Ton $1.75 1970-01-01 125977
Minitrix 3224 Canadian National Open Hopper, Ore, 70 Ton $1.75 1970-01-01 125978
Minitrix 3226 Penn Central PC 80006 Box Car, 40 Foot, Double Door $1.75 1970-01-01 120010
Minitrix 3236 Canadian National Flatcar, 40 Foot $1.75 1970-01-01 123785
Minitrix 3238 Canadian Pacific Flatcar, 40 Foot $1.75 1970-01-01 123786
Minitrix 3240 Union Pacific Flatcar, 40 Foot $1.75 1970-01-01 123787
Minitrix 3241 Santa Fe Flatcar, 40 Foot $1.75 1970-01-01 123788
Minitrix 3242 Great Northern Flatcar, 40 Foot $1.75 1970-01-01 123789
Minitrix 3243 Western Maryland 2475 Flatcar, 40 Foot $1.75 1970-01-01 123790
Minitrix 3245 Norfolk & Western Flatcar, 40 Foot $1.75 H:$9.99 1970-01-01 123791
Minitrix 3246 Burlington Route BNEX 67170 Reefer, 40 Foot, Steel $1.75 1970-01-01 123406
Minitrix 3247 Hormel NADX 3521 Reefer, 40 Foot, Steel $1.75 1970-01-01 123405
Minitrix 3248 Carnation Milk Reefer, 40 Foot, Steel $1.75 E:$12.99 H:$7.00 1970-01-01 123404
Minitrix 3249 Blatz Beer URTX 27107 Reefer, 40 Foot, Steel $1.75 H:$5.00 1970-01-01 123401
Minitrix 3250 Canadian National Reefer, 40 Foot, Steel $1.75 E:$3.99 1970-01-01 123407
Minitrix 3251 Canadian Pacific Reefer, 40 Foot, Steel $1.75 H:$10.95 1970-01-01 123408
Minitrix 3265 Northern Pacific Caboose, Cupola, End $2.00 E:$9.95 1970-01-01 123678
Minitrix 3266 Great Northern Caboose, Cupola, End $2.00 1970-01-01 123679
Minitrix 3267 Penn Central Caboose, Cupola, End $2.00 E:$9.50 H:$9.89 1970-01-01 123680
Minitrix 3268 Canadian National Caboose, Cupola, End $2.00 H:$7.00 1970-01-01 123681
Minitrix 3269 Canadian Pacific Caboose, Cupola, End $2.00 1970-01-01 123682
Minitrix 3270 New Haven Caboose, Cupola, End $2.00 1970-01-01 123683
Minitrix 3271 Union Pacific Caboose, Cupola, End $2.00 1970-01-01 123684
Minitrix 3272 Santa Fe 1951 Caboose, Cupola, End $2.00 1970-01-01 123685
Minitrix 3273 Pennsylvania Caboose, Cupola, End $2.00 E:$15.00 H:$9.99 1970-01-01 123686
Minitrix 3274 Baltimore & Ohio B&O 4068 Caboose, Cupola, End $2.00 H:$5.99 1970-01-01 123677
Minitrix 3275 Milwaukee Road MILW 01601 Caboose, Cupola, End $2.00 H:$9.95 1970-01-01 123610
Minitrix 3276 Southern Pacific SP 400055 Open Hopper, 4-Bay, Offset Side $1.75 1970-01-01 122891
Minitrix 3277 Western Maryland Open Hopper, 4-Bay, Offset Side $1.75 E:$4.99 H:$12.66 1970-01-01 125210
Minitrix 3278 Chicago Outer Belt Open Hopper, 4-Bay, Offset Side $1.75 H:$4.92 1970-01-01 125211
Minitrix 3279 Peabody Short Line PSL 6671 Open Hopper, 4-Bay, Offset Side $1.75 E:$6.00 H:$7.50 1970-01-01 122892
Minitrix 3280 Canadian National Open Hopper, 4-Bay, Offset Side $1.75 1970-01-01 125212
Minitrix 3281 Canadian Pacific Open Hopper, 4-Bay, Offset Side $1.75 1970-01-01 125213
Minitrix 3282 Louisville & Nashville L&N 1132 Caboose, Cupola, End $2.00 1970-01-01 123608
Minitrix 3290 Shell Oil SCCX 1245 Tank Car, Single Dome $2.00 1970-01-01 122890
Minitrix 3291 Mobil Oil SVX 1442 Tank Car, Single Dome $2.00 1970-01-01 122893
Minitrix 3297 Deutsche Bundesbahn DB Trains $4.00 1970-01-01 125971
Minitrix 3298 Deutsche Bundesbahn DB Trains $5.00 H:$38.00 1970-01-01 125972